TimeCST,TemperatureF,Dew PointF,Humidity,Sea Level PressureIn,VisibilityMPH,Wind Direction,Wind SpeedMPH,Gust SpeedMPH,PrecipitationIn,Events,Conditions,WindDirDegrees,DateUTC
12:14 AM,46.4,21.2,37,29.69,10.0,SSW,10.4,-,N/A,,Clear,210,2012-12-06 06:14:00
12:34 AM,46.4,21.2,37,29.67,10.0,SSW,11.5,-,N/A,,Clear,200,2012-12-06 06:34:00
12:53 AM,44.6,21.2,39,29.68,10.0,SSW,4.6,-,N/A,,Clear,200,2012-12-06 06:53:00
1:14 AM,44.6,21.2,39,29.69,10.0,SW,3.5,-,N/A,,Clear,220,2012-12-06 07:14:00
1:34 AM,46.4,21.2,37,29.69,10.0,SW,4.6,-,N/A,,Clear,220,2012-12-06 07:34:00
1:53 AM,46.4,21.2,37,29.70,10.0,West,4.6,-,N/A,,Clear,280,2012-12-06 07:53:00
2:14 AM,46.4,23.0,40,29.71,10.0,WNW,8.1,-,N/A,,Clear,290,2012-12-06 08:14:00
2:34 AM,44.6,24.8,46,29.72,10.0,West,5.8,-,N/A,,Mostly Cloudy,270,2012-12-06 08:34:00
2:53 AM,44.6,26.6,49,29.74,10.0,West,4.6,-,N/A,Rain,Light Rain,280,2012-12-06 08:53:00
3:14 AM,44.6,30.2,57,29.75,10.0,WNW,9.2,-,N/A,Rain,Rain,300,2012-12-06 09:14:00
3:34 AM,42.8,33.8,70,29.76,10.0,WNW,8.1,-,0.01,Rain,Light Rain,300,2012-12-06 09:34:00
3:53 AM,42.8,33.8,70,29.76,10.0,NW,12.7,-,0.01,,Drizzle,310,2012-12-06 09:53:00
4:14 AM,42.8,32.0,66,29.77,10.0,NW,16.1,19.6,N/A,,Mostly Cloudy,310,2012-12-06 10:14:00
4:34 AM,42.8,30.2,61,29.78,10.0,NW,12.7,-,N/A,,Scattered Clouds,310,2012-12-06 10:34:00
4:53 AM,42.8,28.4,57,29.78,10.0,NNW,10.4,-,N/A,,Scattered Clouds,330,2012-12-06 10:53:00
5:14 AM,39.2,28.4,65,29.78,10.0,NW,4.6,-,N/A,,Clear,320,2012-12-06 11:14:00
5:34 AM,39.2,28.4,65,29.79,10.0,NW,5.8,-,N/A,,Clear,320,2012-12-06 11:34:00
5:53 AM,37.4,28.4,70,29.81,10.0,NW,8.1,-,N/A,,Clear,310,2012-12-06 11:53:00
6:14 AM,37.4,28.4,70,29.83,10.0,WNW,10.4,-,N/A,,Clear,300,2012-12-06 12:14:00
6:34 AM,37.4,28.4,70,29.84,10.0,NW,11.5,-,N/A,,Clear,310,2012-12-06 12:34:00
6:54 AM,39.2,28.4,65,29.85,10.0,NW,13.8,23.0,N/A,,Clear,310,2012-12-06 12:54:00
7:14 AM,39.2,28.4,65,29.86,10.0,NW,16.1,24.2,N/A,,Clear,320,2012-12-06 13:14:00
7:34 AM,37.4,28.4,70,29.86,10.0,NW,11.5,18.4,N/A,,Clear,310,2012-12-06 13:34:00
7:53 AM,37.4,28.4,70,29.86,10.0,North,-9999.0,-,N/A,,Clear,0,2012-12-06 13:53:00
8:14 AM,37.4,28.4,70,29.87,-9999.0,WNW,17.3,20.7,N/A,,Clear,300,2012-12-06 14:14:00
8:34 AM,32.0,28.4,87,29.88,10.0,WNW,13.8,20.7,N/A,,Scattered Clouds,290,2012-12-06 14:34:00
8:51 AM,37.4,28.4,70,29.88,10.0,WNW,11.5,-,N/A,,Scattered Clouds,290,2012-12-06 14:51:00
9:14 AM,39.2,28.4,65,29.88,10.0,NW,13.8,20.7,N/A,,Clear,310,2012-12-06 15:14:00
9:34 AM,39.2,28.4,65,29.88,10.0,NW,17.3,21.9,N/A,,Clear,320,2012-12-06 15:34:00
9:54 AM,39.2,28.4,65,29.89,10.0,NW,17.3,25.3,N/A,,Clear,320,2012-12-06 15:54:00
10:14 AM,41.0,28.4,61,29.89,10.0,NW,15.0,24.2,N/A,,Clear,320,2012-12-06 16:14:00
10:34 AM,42.8,28.4,57,29.90,10.0,NNW,20.7,26.5,N/A,,Clear,330,2012-12-06 16:34:00
10:54 AM,42.8,28.4,57,29.90,10.0,NNW,17.3,26.5,N/A,,Clear,330,2012-12-06 16:54:00
11:14 AM,42.8,28.4,57,29.91,10.0,NNW,16.1,23.0,N/A,,Clear,330,2012-12-06 17:14:00
11:34 AM,42.8,28.4,57,29.90,10.0,NNW,17.3,24.2,N/A,,Clear,330,2012-12-06 17:34:00
11:54 AM,42.8,28.4,57,29.90,10.0,NNW,20.7,-,N/A,,Clear,330,2012-12-06 17:54:00
12:14 PM,42.8,28.4,57,29.90,10.0,NW,16.1,19.6,N/A,,Clear,320,2012-12-06 18:14:00
12:34 PM,42.8,28.4,57,29.90,10.0,NNW,15.0,-,N/A,,Clear,330,2012-12-06 18:34:00
12:54 PM,42.8,28.4,57,29.91,10.0,NNW,15.0,19.6,N/A,,Clear,330,2012-12-06 18:54:00
1:14 PM,42.8,28.4,57,29.91,10.0,NNW,12.7,19.6,N/A,,Clear,330,2012-12-06 19:14:00
1:34 PM,42.8,26.6,53,29.91,10.0,NW,16.1,19.6,N/A,,Clear,320,2012-12-06 19:34:00
1:54 PM,42.8,26.6,53,29.91,10.0,NNW,16.1,20.7,N/A,,Clear,330,2012-12-06 19:54:00
2:14 PM,42.8,26.6,53,29.92,10.0,NW,17.3,-,N/A,,Clear,320,2012-12-06 20:14:00
2:34 PM,42.8,24.8,49,29.93,10.0,NNW,12.7,-,N/A,,Clear,330,2012-12-06 20:34:00
2:54 PM,42.8,24.8,49,29.92,10.0,NNW,13.8,19.6,N/A,,Clear,340,2012-12-06 20:54:00
3:14 PM,39.2,24.8,56,29.93,10.0,NNW,11.5,-,N/A,,Clear,330,2012-12-06 21:14:00
3:34 PM,39.2,23.0,52,29.95,10.0,NNW,11.5,-,N/A,,Clear,330,2012-12-06 21:34:00
3:54 PM,37.4,23.0,56,29.95,10.0,NW,9.2,-,N/A,,Clear,320,2012-12-06 21:54:00
4:14 PM,37.4,23.0,56,29.96,10.0,NW,10.4,-,N/A,,Clear,320,2012-12-06 22:14:00
4:34 PM,35.6,21.2,56,29.97,10.0,NNW,9.2,-,N/A,,Clear,330,2012-12-06 22:34:00
4:54 PM,35.6,19.4,52,29.98,10.0,NNW,11.5,-,N/A,,Clear,330,2012-12-06 22:54:00
5:13 PM,33.8,19.4,56,29.98,10.0,NNW,9.2,-,N/A,,Clear,340,2012-12-06 23:13:00
5:34 PM,30.2,19.4,64,29.98,10.0,NNW,9.2,-,N/A,,Clear,330,2012-12-06 23:34:00
5:54 PM,30.2,19.4,64,29.98,10.0,NNW,9.2,-,N/A,,Clear,330,2012-12-06 23:54:00
6:14 PM,30.2,19.4,64,29.99,10.0,NNW,8.1,-,N/A,,Clear,340,2012-12-07 00:14:00
6:34 PM,28.4,19.4,69,29.99,10.0,North,8.1,-,N/A,,Clear,350,2012-12-07 00:34:00
6:50 PM,28.4,19.4,69,29.99,10.0,NNW,5.8,-,N/A,,Clear,340,2012-12-07 00:50:00
7:14 PM,28.4,19.4,69,29.99,10.0,North,9.2,-,N/A,,Clear,350,2012-12-07 01:14:00
7:34 PM,28.4,19.4,69,30.00,10.0,North,9.2,-,N/A,,Clear,10,2012-12-07 01:34:00
7:53 PM,26.6,17.6,69,30.01,10.0,North,5.8,-,N/A,,Clear,10,2012-12-07 01:53:00
8:34 PM,23.0,17.6,80,30.02,10.0,NW,4.6,-,N/A,,Clear,310,2012-12-07 02:34:00
8:53 PM,23.0,17.6,80,30.02,10.0,NW,6.9,-,N/A,,Clear,310,2012-12-07 02:53:00
9:14 PM,21.2,15.8,80,30.02,10.0,WNW,4.6,-,N/A,,Clear,290,2012-12-07 03:14:00
9:34 PM,21.2,17.6,86,30.02,10.0,West,4.6,-,N/A,,Clear,270,2012-12-07 03:34:00
9:54 PM,21.2,15.8,80,30.01,10.0,NW,4.6,-,N/A,,Clear,310,2012-12-07 03:54:00
10:13 PM,19.4,15.8,86,30.02,10.0,Calm,Calm,-,N/A,,Clear,0,2012-12-07 04:13:00
10:34 PM,21.2,17.6,86,30.02,10.0,WNW,4.6,-,N/A,,Clear,290,2012-12-07 04:34:00
10:54 PM,23.0,17.6,80,30.02,10.0,WNW,5.8,-,N/A,,Clear,300,2012-12-07 04:54:00
11:13 PM,23.0,17.6,80,30.02,10.0,WNW,3.5,-,N/A,,Clear,290,2012-12-07 05:13:00
11:34 PM,23.0,17.6,80,30.03,10.0,West,3.5,-,N/A,,Clear,270,2012-12-07 05:34:00
11:54 PM,23.0,17.6,80,30.02,10.0,WNW,5.8,-,N/A,,Clear,290,2012-12-07 05:54:00